Погода в Славгороде

Погода в Славгороде : погода сейчас, прогноз погоды и архив. Всё, что Вы хотите узнать о погоде в Славгороде!

Хотите узнать прогноз погоды в Славгороде? Тогда Вам сюда: Погода в Славгороде

Поиск расширенной информации на нашем сайте:

Полезная информация:

Другие новости

Новости СМИ2

Главная страница сайта

Новости сайта

03.07.2017

Напоминаем, что на нашем специализированном сайте Метеоцентр.Азия вы можете получить высокодетализированные автоматические прогнозы погоды по пунктам России, СНГ и мира в авиационном формате (включающие направление и скорость ветра, видимость, явления погоды, количество и форму облачности, нижнюю и верхнюю границу облачности).

Рекомендуем:

Погода в Славгороде - сегодня

Время (UTC), дата Ветер
(°,м/с) 
Видим.   Явления Облачность Т
(°С)
Тd
(°С)
f(%) Тe
(°С)
Pmin
(гПа)
dP
(гПа)
Po
(мм)
O2
(г/м3)
Тmin Tmax R s Состояние
почвы
09 17.05.19 260 (З) 20000 м    4/3 600 м верхняя 
[Cu hum|Ci sp]
+15.4 -10.6 16 +15  1021.5  -2.1  755  289           
12 17.05.19 240 (ЮЗ) 20000 м    3/0 верхняя 
[Ci sp]
+15.6 -9.9 16 +16  1020.1  -1.3  754  288    +16.2       
15 17.05.19 190 (Ю) 20000 м    3/0 средняя, верхняя 
[Ac trans|Ci sp]
+9.3 -7.3 30 +9  1019.7  -0.8  753  294           
18 17.05.19 180 (Ю) 20000 м    10/0 средняя 
[Ac trans]
+9.2 -6.3 33 +8  1018.2  -1.5  752  294           
00 18.05.19 170 (Ю) 6{11}  20000 м    3/0 верхняя 
[Ci sp]
+8.8 -5.2 37 +7  1013.2  -2.3  748  293  +7.4        сухая 
12 18.05.19 220 (ЮЗ) 5{16}  20000 м    10/3 600 м кучево-дожд., верхняя 
[Cb cap|Ci sp]
+21.5 -8.3 13 +22  1004.8  -1.6  743  278    +22.7       
15 18.05.19 210 (ЮЗ) 3{10}  20000 м    10/4 600 м кучево-дожд., средняя, верхняя 
[Cb cap|Ac trans|Ci sp]
+18.1 -4 22 +19  1003.6  -1.4  742  281           
18 18.05.19 140 (ЮВ) 20000 м    10/0 средняя, верхняя 
[Ac trans|Ci sp]
+14.1 -1.2 35 +15  1003.2  -0.6  741  284           
21 18.05.19 110 (В) 20000 м    8/0 средняя 
[Ac trans]
+12.9 -1.2 38 +13  1000.3  -2.9  739  284           
00 19.05.19 190 (Ю) 20000 м    9/9 720 м кучево-дожд. 
[Cb cap]
+12.3 +0.3 44 +13  999.9  -0.4  739  285  +11.7        сухая 
03 19.05.19 290 (З) 6{10}  20000 м    3/0 верхняя 
[Ci sp]
+16.3 +7.9 57 +16  1001.9  2.2  740  280           
09 19.05.19 310 (СЗ) 5{11}  20000 м    3/3 600 м кучево-дожд. 
[Cb cap]
+17.6 -1.3 28 +18  1007.1  1.1  744  282           
12 19.05.19 300 (СЗ) 20000 м    1/0 верхняя 
[Ci sp]
+18.7 -4.3 21 +20  1006.8  -0.3  744  281    +18.9       
15 19.05.19 220 (ЮЗ) 20000 м    ясно 
+13.7 -3.1 31 +14  1007.6  0.5  744  286           
18 19.05.19 170 (Ю) 20000 м    ясно 
+6.9 +0.4 63 +7  1007.1  -0.8  744  292           
21 19.05.19 180 (Ю) 20000 м    1/0 верхняя 
[Ci sp]
+9.3 +1.6 59 +8  1005.7  -1.3  743  289           
00 20.05.19 300 (СЗ) 20000 м    6/3 600 м кучево-дожд., средняя, верхняя 
[Cb cap|Ac trans|Ci sp]
+10.3 +4.1 65 +10  1007.6  744  288  +5.3        сухая 
03 20.05.19 280 (З) 20000 м    8/0 средняя, верхняя 
[Ac trans|Ci sp]
+14.1 -3 30 +14  1008.6  1.2  745  286           
09 20.05.19 290 (З) 4{11}  20000 м    10/3 600 м кучево-дожд., средняя, верхняя 
[Cb cap|Ac trans|Ci sp]
+16.2 -2.5 28 +16  1007.7  -1.2  745  283           
12 20.05.19 350 (С) 20000 м    3/1 600 м кучево-дожд., верхняя 
[Cb cap|Ci sp]
+16.5 -7.1 19 +17  1005.9  -1.7  743  283    +17.8       
15 20.05.19 010 (С) 20000 м    3/3 600 м кучево-дожд. 
[Cb cap]
+10.8 -4.8 33 +11  1003.6  -2.5  741  288           
00 21.05.19 200 (Ю) 20000 м  {ливн. осадки}  8/8 750 м кучево-дожд. 
[Cb cap]
+7 +4.9 86 +6  1003  0.9  741  290  +4      влажная 
12 21.05.19 290 (З) 8-13{14}  20000 м    4/4 1000 м 
[Cu hum]
+14.6 -4.7 26 +14  1006.4  0.5  744  285    +15.1       
18 21.05.19 280 (З) 1{10}  20000 м    ясно 
+4.8 -1.2 65 +6  1009.5  0.8  746  295           
21 21.05.19 260 (З) 20000 м    1/0 средняя 
[Ac trans]
+2.7 -2.4 69 +1  1009.8  -0.1  746  298           
Время (UTC), дата Ветер
(°,м/с) 
Видим.   Явления Облачность Т
(°С)
Тd
(°С)
f(%) Тe
(°С)
Pmin
(гПа)
dP
(гПа)
Po
(мм)
O2
(г/м3)
Тmin Tmax R s Состояние
почвы

Для получения пояснительной информации подведите курсор к названию столбца.

ПОГОДА в Славгороде - архив

Всё, что Вы хотите узнать о погоде в Славгороде - удобно и подробно!

Выберите нужную дату (начиная с 1 января 2018* года) и нажмите кнопку "Найти".
Будут отображены архивные сводки погоды по пункту Славгород, начиная с указанной даты.


Отображать данные в формате CSV (для использования в таблицах Excel)


Внимание! Наш архив погоды предназначен исключительно для личного некоммерческого использования в познавательных целях. Если Вам необходимы официальные справки о состоянии погоды (для производственных, юридических, коммерческих и т.п. целей), обращайтесь в органы Росгидромета.

*Примечание: данная дата относится к архиву по метеостанциям СССР (Россия, СНГ, Балтия).
Архив по метеостанциям Зарубежной Европы и Азии (кроме Китая) хранится 10 дней, по другим регионам земного шара (Китай, Африка, Америка, Австралия, Океания) - 1 день.

Славгород - район местоположения метеостанции


Название, широта, долгота, высота метеостанции:
Славгород 53°ш. 78.6°д. 126 м над ур. моря [Российская Федерация]

Дополнительная информация

В oтличие oт бoльшинства пoгoдных сайтoв мы публикуем пoдрoбную метеoинфoрмацию в детальнoм прoфессиoнальнoм фoрмате.

Характеристики температуры и влажнoсти вoздуха измеряются на высoте 2 м в тени вдали oт зданий и деревьев.
Скoрoсть ветра измеряется на высoте 10 м (на урoвне рoста челoвека скoрoсть ветра ниже в 1.5-2 раза). Если метеoстанция нахoдится в гoрoде или в лесу, тo скoрoсть ветра занижена на 2-4 м/с пo сравнению с oткрытым местoм. Скoрoсть ветра над акватoриями крупных рек и oзёр, а также на вершинах хoлмoв на 2-5 м/с выше, чем в oбычных услoвиях.
Атмoсфернoе давление в разных тoчках местнoсти мoжет значительнo oтличаться oт давления на метеoстанции, в зависимoсти oт услoвий рельефа (при пoдъёме на 10 м давление пoнижается примернo на 1 мм рт.ст.).